Stations météo

Publicité
Drumnadrochit, Grande-Bretagne (99132): Température de l'air & dewpoint: 13.11.2017 20:00:00 - 19.11.2017 20:00:00 (GMT)Drumnadrochit, Grande-Bretagne (99132): Quantités de précipitations: 13.11.2017 20:00:00 - 19.11.2017 20:00:00 (GMT)
Date & Time tt [°C] td [°C] rr [mm]
19.11.2017 20:00:00 - - -
19.11.2017 19:00:00 1,8 1,7 0,0
19.11.2017 18:00:00 1,7 1,4 0,0
19.11.2017 17:00:00 1,8 1,4 0,0
19.11.2017 16:00:00 2,1 1,7 0,0
19.11.2017 15:00:00 2,7 2,1 0,0
19.11.2017 14:00:00 2,7 2,3 0,0
19.11.2017 13:00:00 1,8 1,5 0,0
19.11.2017 12:00:00 - - 0,0
19.11.2017 11:00:00 2,6 2,1 0,2
19.11.2017 10:00:00 -0,3 -0,4 0,0
19.11.2017 09:00:00 -0,3 -0,4 0,0
19.11.2017 08:00:00 0,3 0,2 0,0
19.11.2017 07:00:00 0,5 0,5 0,0
19.11.2017 06:00:00 -0,4 -0,4 0,0
19.11.2017 05:00:00 -1,1 -1,1 0,0
19.11.2017 04:00:00 -1,6 -1,7 0,0
19.11.2017 03:00:00 -1,2 -1,5 0,0
19.11.2017 02:00:00 -0,5 -1,1 -
19.11.2017 01:00:00 0,4 -0,5 0,0
19.11.2017 00:00:00 2,5 1,8 0,0
18.11.2017 23:00:00 2,5 1,6 0,0
18.11.2017 22:00:00 3,6 2,4 0,0
18.11.2017 21:00:00 3,9 1,8 0,0
18.11.2017 20:00:00 3,6 1,1 0,0
18.11.2017 19:00:00 4,3 0,7 0,0
18.11.2017 18:00:00 3,9 -0,5 0,0
18.11.2017 17:00:00 3,7 -1,1 0,0
18.11.2017 16:00:00 4,2 -1,2 0,0
18.11.2017 15:00:00 5,6 -1,4 0,0
18.11.2017 14:00:00 6,5 -2,5 0,0
18.11.2017 13:00:00 5,9 -1,5 0,0
18.11.2017 12:00:00 4,4 -0,4 0,0
18.11.2017 11:00:00 4,5 1,5 0,2
18.11.2017 10:00:00 1,4 0,6 0,0
18.11.2017 09:00:00 -1,1 -1,5 0,0
18.11.2017 08:00:00 -0,5 -1,0 0,0
18.11.2017 07:00:00 1,2 0,4 0,0
18.11.2017 06:00:00 0,8 0,2 0,0
18.11.2017 05:00:00 2,8 0,8 0,0
18.11.2017 04:00:00 4,1 0,6 0,2
18.11.2017 03:00:00 3,4 1,9 0,4
18.11.2017 02:00:00 3,6 0,5 0,4
18.11.2017 01:00:00 4,8 1,8 0,6
18.11.2017 00:00:00 4,8 2,5 0,6
17.11.2017 23:00:00 5,6 3,3 1,0
17.11.2017 22:00:00 6,5 3,0 0,4
17.11.2017 21:00:00 6,6 2,9 0,2
17.11.2017 20:00:00 6,5 2,9 0,2
17.11.2017 19:00:00 6,1 3,1 0,4
17.11.2017 18:00:00 6,1 2,8 0,0
17.11.2017 17:00:00 5,0 3,2 0,2
17.11.2017 16:00:00 6,8 2,9 0,0
17.11.2017 15:00:00 7,5 2,7 0,0
17.11.2017 14:00:00 9,6 3,8 0,0
17.11.2017 13:00:00 8,8 3,4 0,0
17.11.2017 12:00:00 8,8 3,0 0,0
17.11.2017 11:00:00 7,7 2,8 0,0
17.11.2017 10:00:00 7,0 3,4 0,0
17.11.2017 09:00:00 7,4 2,2 0,0
17.11.2017 08:00:00 7,6 2,2 0,0
17.11.2017 07:00:00 7,0 2,5 0,0
17.11.2017 06:00:00 6,5 2,1 0,0
17.11.2017 05:00:00 6,3 2,8 0,0
17.11.2017 04:00:00 5,9 2,1 0,0
17.11.2017 03:00:00 6,4 1,9 0,0
17.11.2017 02:00:00 5,1 0,8 0,0
17.11.2017 01:00:00 6,0 0,0 0,0
17.11.2017 00:00:00 5,2 0,1 0,0
16.11.2017 23:00:00 4,1 0,7 0,0
16.11.2017 22:00:00 1,5 -0,7 0,0
16.11.2017 21:00:00 3,5 0,6 0,0
16.11.2017 20:00:00 0,1 -0,6 0,2
16.11.2017 19:00:00 0,8 -0,6 -
16.11.2017 18:00:00 4,1 1,1 0,0
16.11.2017 17:00:00 4,6 1,3 -
16.11.2017 16:00:00 4,1 1,1 0,2
16.11.2017 15:00:00 6,0 -0,1 0,0
16.11.2017 14:00:00 7,1 -0,6 0,0
16.11.2017 13:00:00 6,5 1,1 0,0
16.11.2017 12:00:00 7,0 0,7 0,0
16.11.2017 11:00:00 5,3 1,5 0,6
16.11.2017 10:00:00 3,6 1,6 0,2
16.11.2017 09:00:00 3,8 1,6 0,6
16.11.2017 08:00:00 5,3 2,0 0,2
16.11.2017 07:00:00 6,1 3,6 0,6
16.11.2017 06:00:00 6,7 5,0 0,8
16.11.2017 05:00:00 7,1 5,2 2,0
16.11.2017 04:00:00 8,6 6,6 1,8
16.11.2017 03:00:00 10,8 8,1 0,0
16.11.2017 02:00:00 10,8 7,8 0,0
16.11.2017 01:00:00 10,1 8,2 0,2
16.11.2017 00:00:00 9,3 7,7 0,8
15.11.2017 23:00:00 8,8 7,2 0,0
15.11.2017 22:00:00 8,6 6,2 0,0
15.11.2017 21:00:00 8,0 4,6 0,0
15.11.2017 20:00:00 8,5 4,4 0,0
15.11.2017 19:00:00 8,0 3,9 0,0
15.11.2017 18:00:00 7,8 4,2 0,0
15.11.2017 17:00:00 5,5 4,6 0,2
15.11.2017 16:00:00 5,3 4,4 0,0
15.11.2017 15:00:00 5,4 4,6 0,0
15.11.2017 14:00:00 4,8 4,2 0,0
15.11.2017 13:00:00 4,6 4,3 0,0
15.11.2017 12:00:00 3,1 3,1 0,0
15.11.2017 11:00:00 1,5 1,5 0,0
15.11.2017 10:00:00 0,5 0,5 0,0
15.11.2017 09:00:00 0,4 0,4 0,0
15.11.2017 08:00:00 0,1 0,1 0,0
15.11.2017 07:00:00 -0,4 -0,7 0,0
15.11.2017 06:00:00 0,3 0,1 0,0
15.11.2017 05:00:00 1,0 0,8 0,0
15.11.2017 04:00:00 2,9 1,7 0,0
15.11.2017 03:00:00 - - 0,0
15.11.2017 02:00:00 3,0 2,7 -
15.11.2017 01:00:00 5,4 4,5 0,6
15.11.2017 00:00:00 5,1 3,8 0,0
14.11.2017 23:00:00 4,3 3,5 0,0
14.11.2017 22:00:00 3,2 2,0 0,0
14.11.2017 21:00:00 6,0 3,1 0,0
14.11.2017 20:00:00 2,5 1,1 0,0
14.11.2017 19:00:00 2,5 0,7 0,0
14.11.2017 18:00:00 6,7 2,9 0,0
14.11.2017 17:00:00 6,1 2,9 -
14.11.2017 16:00:00 7,8 4,9 0,0
14.11.2017 15:00:00 8,7 4,6 0,0
14.11.2017 14:00:00 9,4 5,0 0,0
14.11.2017 13:00:00 8,8 4,8 0,0
14.11.2017 12:00:00 - - 0,0
14.11.2017 11:00:00 8,3 5,2 0,0
14.11.2017 10:00:00 7,2 4,3 0,0
14.11.2017 09:00:00 5,0 4,1 0,0
14.11.2017 08:00:00 4,7 4,1 0,0
14.11.2017 07:00:00 6,7 5,8 0,0
14.11.2017 06:00:00 6,6 5,8 0,0
14.11.2017 05:00:00 6,2 4,8 0,0
14.11.2017 04:00:00 6,2 6,1 -
14.11.2017 03:00:00 5,5 5,0 0,0
14.11.2017 02:00:00 7,3 6,0 0,0
14.11.2017 01:00:00 7,9 6,9 0,2
14.11.2017 00:00:00 7,1 6,4 0,2
13.11.2017 23:00:00 9,0 6,6 0,2
13.11.2017 22:00:00 8,5 8,2 0,2
13.11.2017 21:00:00 9,3 8,1 0,2
13.11.2017 20:00:00 9,5 7,4 0,0

tt = Température de l'air
td = dewpoint
rr = Quantités de précipitations

stations d'obs. à proximité

  • TOP-25 (most viewed):